K8MUD Weather Reports


Display with metric or nautical units.
time (UTC)temp
F
wind
direction
speed
MPH
gust
MPH
rain 1hr
in
rain 24hr
in
rain mn
in
humidity
%
barometer
mb
20260901205045 97 267 4.0 11.0 0.00 0.00 0.00 56 1012.9
20260901205001 97 267 4.0 11.0 0.00 0.00 0.00 56 1012.9
20260901204545 97 273 5.0 11.0 0.00 0.00 0.00 56 1012.8
20260901204502 97 273 5.0 11.0 0.00 0.00 0.00 56 1012.8
20260901204045 97 275 7.0 14.0 0.00 0.00 0.00 56 1012.8
20260901204002 97 275 7.0 14.0 0.00 0.00 0.00 56 1012.8
20260901203545 97 273 8.0 14.0 0.00 0.00 0.00 56 1012.8
20260901203501 97 273 8.0 14.0 0.00 0.00 0.00 56 1012.8
20260901203045 98 271 7.0 13.0 0.00 0.00 0.00 54 1012.6
20260901203004 98 271 7.0 13.0 0.00 0.00 0.00 54 1012.6
20260901202545 98 270 6.0 13.0 0.00 0.00 0.00 55 1012.6
20260901202501 98 270 6.0 13.0 0.00 0.00 0.00 55 1012.6
20260901202045 97 253 5.0 13.0 0.00 0.00 0.00 56 1012.6
20260901202002 97 253 5.0 13.0 0.00 0.00 0.00 56 1012.6
20260901201545 97 231 4.0 9.0 0.00 0.00 0.00 56 1012.6
20260901201502 97 232 4.0 9.0 0.00 0.00 0.00 56 1012.6
20260901201045 97 239 4.0 10.0 0.00 0.00 0.00 56 1012.6
20260901201001 97 240 4.0 10.0 0.00 0.00 0.00 56 1012.6
20260901200545 97 289 4.0 10.0 0.00 0.00 0.00 56 1012.6
20260901200501 97 289 4.0 10.0 0.00 0.00 0.00 56 1012.6
20260901200045 97 303 4.0 10.0 0.00 0.00 0.00 55 1012.6
20260901200002 97 302 4.0 10.0 0.00 0.00 0.00 55 1012.6
20260901195545 98 275 5.0 15.0 0.00 0.00 0.00 55 1012.8
20260901195523 98 275 5.0 15.0 0.00 0.00 0.00 55 1012.8
20260901195045 97 275 5.0 15.0 0.00 0.00 0.00 55 1012.8
20260901195001 97 275 5.0 15.0 0.00 0.00 0.00 55 1012.8
20260901194545 97 276 4.0 13.0 0.00 0.00 0.00 55 1012.8
20260901194502 97 276 4.0 10.0 0.00 0.00 0.00 55 1012.8
20260901194045 98 268 5.0 12.0 0.00 0.00 0.00 55 1012.8
20260901194002 98 268 5.0 12.0 0.00 0.00 0.00 55 1012.8
20260901193544 98 273 4.0 12.0 0.00 0.00 0.00 54 1012.9
20260901193501 98 273 4.0 12.0 0.00 0.00 0.00 54 1012.9
20260901193044 97 268 3.0 8.0 0.00 0.00 0.00 55 1012.9
20260901193022 97 268 3.0 8.0 0.00 0.00 0.00 55 1012.9
20260901192544 97 272 4.0 9.0 0.00 0.00 0.00 55 1012.9
20260901192505 97 272 4.0 9.0 0.00 0.00 0.00 55 1012.9
20260901192044 97 278 4.0 9.0 0.00 0.00 0.00 54 1012.8
20260901192002 97 278 4.0 9.0 0.00 0.00 0.00 54 1012.8
20260901191544 97 267 3.0 9.0 0.00 0.00 0.00 55 1012.9
20260901191501 97 267 3.0 9.0 0.00 0.00 0.00 55 1012.9
20260901191044 98 265 4.0 11.0 0.00 0.00 0.00 55 1012.9
20260901191002 98 265 4.0 11.0 0.00 0.00 0.00 55 1012.9
20260901190544 98 264 3.0 11.0 0.00 0.00 0.00 54 1012.8
20260901190502 98 264 3.0 11.0 0.00 0.00 0.00 54 1012.8
20260901190044 98 281 4.0 10.0 0.00 0.00 0.00 55 1012.8
20260901190005 98 281 4.0 10.0 0.00 0.00 0.00 55 1012.8
20260901185544 98 278 5.0 15.0 0.00 0.00 0.00 54 1012.7
20260901185501 98 277 5.0 15.0 0.00 0.00 0.00 54 1012.7
20260901185044 98 271 5.0 15.0 0.00 0.00 0.00 54 1012.8
20260901185002 98 271 5.0 15.0 0.00 0.00 0.00 54 1012.8
20260901184544 98 273 4.0 11.0 0.00 0.00 0.00 54 1012.7
20260901184502 98 272 4.0 11.0 0.00 0.00 0.00 54 1012.7
20260901184044 98 248 4.0 11.0 0.00 0.00 0.00 54 1012.6
20260901184001 98 248 4.0 11.0 0.00 0.00 0.00 54 1012.6
20260901183544 98 229 3.0 6.0 0.00 0.00 0.00 55 1012.7
20260901183502 98 229 3.0 6.0 0.00 0.00 0.00 55 1012.7
20260901183044 98 268 2.0 8.0 0.00 0.00 0.00 56 1012.6
20260901183002 98 267 2.0 8.0 0.00 0.00 0.00 56 1012.6
20260901182544 97 273 3.0 9.0 0.00 0.00 0.00 57 1012.6
20260901182502 97 272 3.0 9.0 0.00 0.00 0.00 57 1012.6
20260901182044 96 250 4.0 10.0 0.00 0.00 0.00 57 1012.7
20260901182002 96 249 4.0 10.0 0.00 0.00 0.00 57 1012.7
20260901181544 96 240 4.0 10.0 0.00 0.00 0.00 58 1012.8
20260901181502 96 241 4.0 10.0 0.00 0.00 0.00 58 1012.8
20260901181044 96 266 5.0 11.0 0.00 0.00 0.00 57 1012.7
20260901181023 96 267 5.0 11.0 0.00 0.00 0.00 57 1012.7
20260901180543 96 259 4.0 11.0 0.00 0.00 0.00 57 1012.7
20260901180502 96 260 4.0 11.0 0.00 0.00 0.00 57 1012.7
20260901180043 96 239 4.0 9.0 0.00 0.00 0.00 59 1012.8
20260901180023 96 239 4.0 9.0 0.00 0.00 0.00 59 1012.8
20260901175543 96 250 4.0 9.0 0.00 0.00 0.00 58 1012.8
20260901175502 96 250 4.0 9.0 0.00 0.00 0.00 58 1012.8
20260901175043 96 257 4.0 9.0 0.00 0.00 0.00 58 1012.8
20260901175001 96 257 4.0 9.0 0.00 0.00 0.00 58 1012.8
20260901174543 96 263 3.0 9.0 0.00 0.00 0.00 59 1012.8
20260901174502 96 263 3.0 9.0 0.00 0.00 0.00 59 1012.8
20260901174043 95 247 2.0 8.0 0.00 0.00 0.00 60 1012.9
20260901174007 95 247 2.0 8.0 0.00 0.00 0.00 60 1012.9
20260901173543 94 245 2.0 8.0 0.00 0.00 0.00 60 1013.1
20260901173502 94 245 2.0 8.0 0.00 0.00 0.00 60 1013.1
20260901173043 94 286 2.0 5.0 0.00 0.00 0.00 62 1013.1
20260901173005 94 287 2.0 5.0 0.00 0.00 0.00 61 1013.1
20260901172543 94 302 2.0 5.0 0.00 0.00 0.00 62 1013.2
20260901172523 94 301 2.0 5.0 0.00 0.00 0.00 62 1013.2
20260901172043 93 245 2.0 8.0 0.00 0.00 0.00 65 1013.1
20260901172023 93 245 2.0 8.0 0.00 0.00 0.00 65 1013.1
20260901171543 92 269 4.0 9.0 0.00 0.00 0.00 63 1013.2
20260901171502 92 269 4.0 9.0 0.00 0.00 0.00 63 1013.2
20260901171043 91 280 4.0 9.0 0.00 0.00 0.00 65 1013.4
20260901171002 91 280 4.0 9.0 0.00 0.00 0.00 65 1013.4
20260901170543 90 268 4.0 9.0 0.00 0.00 0.00 66 1013.4
20260901170502 90 267 4.0 9.0 0.00 0.00 0.00 66 1013.4
20260901170043 88 225 3.0 9.0 0.00 0.00 0.00 69 1013.5
20260901170002 88 224 3.0 9.0 0.00 0.00 0.00 69 1013.5
20260901165543 88 94 2.0 4.0 0.00 0.00 0.00 72 1013.6
20260901165502 88 94 2.0 4.0 0.00 0.00 0.00 72 1013.6
20260901165042 89 53 2.0 4.0 0.00 0.00 0.00 71 1013.7
20260901165001 89 51 2.0 4.0 0.00 0.00 0.00 71 1013.7
20260901164542 89 318 2.0 4.0 0.00 0.00 0.00 70 1013.9
20260901164502 89 317 2.0 4.0 0.00 0.00 0.00 70 1013.9
20260901164042 89 252 2.0 7.0 0.00 0.00 0.00 70 1014.0
20260901164002 89 250 2.0 7.0 0.00 0.00 0.00 70 1014.0
20260901163542 88 151 2.0 7.0 0.00 0.00 0.00 70 1014.1
20260901163502 88 151 2.0 7.0 0.00 0.00 0.00 70 1014.1
20260901163042 89 147 2.0 5.0 0.00 0.00 0.00 69 1014.1
20260901163002 89 147 2.0 5.0 0.00 0.00 0.00 69 1014.1
20260901162542 90 162 1.0 5.0 0.00 0.00 0.00 70 1014.1
20260901162502 90 162 1.0 5.0 0.00 0.00 0.00 70 1014.1
20260901162042 90 240 2.0 8.0 0.00 0.00 0.00 66 1014.0
20260901162002 90 242 2.0 9.0 0.00 0.00 0.00 66 1014.0
20260901161542 90 266 3.0 9.0 0.00 0.00 0.00 67 1014.0
20260901161502 90 266 3.0 9.0 0.00 0.00 0.00 67 1014.0
20260901161042 90 264 2.0 9.0 0.00 0.00 0.00 68 1014.0
20260901161002 90 264 2.0 9.0 0.00 0.00 0.00 68 1014.0
20260901160542 89 257 3.0 9.0 0.00 0.00 0.00 69 1014.2
20260901160502 89 257 3.0 9.0 0.00 0.00 0.00 69 1014.2
20260901160042 88 259 3.0 9.0 0.00 0.00 0.00 70 1014.3
20260901160002 88 259 3.0 9.0 0.00 0.00 0.00 70 1014.3
20260901155542 88 254 2.0 7.0 0.00 0.00 0.00 71 1014.2
20260901155502 88 255 2.0 7.0 0.00 0.00 0.00 71 1014.2
20260901155042 87 288 2.0 7.0 0.00 0.00 0.00 71 1014.2
20260901155002 87 289 2.0 7.0 0.00 0.00 0.00 71 1014.2
20260901154542 87 308 3.0 6.0 0.00 0.00 0.00 71 1014.3
20260901154501 87 308 3.0 6.0 0.00 0.00 0.00 72 1014.3
20260901154041 86 296 3.0 9.0 0.00 0.00 0.00 72 1014.4
20260901154002 86 296 3.0 9.0 0.00 0.00 0.00 72 1014.4
20260901153541 86 281 2.0 9.0 0.00 0.00 0.00 73 1014.3
20260901153502 86 280 2.0 9.0 0.00 0.00 0.00 73 1014.3
20260901153041 85 270 2.0 6.0 0.00 0.00 0.00 74 1014.2
20260901153002 85 270 2.0 6.0 0.00 0.00 0.00 74 1014.2
20260901152541 85 266 3.0 7.0 0.00 0.00 0.00 74 1014.3
20260901152502 85 266 3.0 7.0 0.00 0.00 0.00 74 1014.3
20260901152041 84 283 3.0 7.0 0.00 0.00 0.00 74 1014.2
20260901152002 84 283 3.0 7.0 0.00 0.00 0.00 74 1014.2
20260901151541 84 298 3.0 6.0 0.00 0.00 0.00 74 1014.3
20260901151504 84 299 3.0 6.0 0.00 0.00 0.00 74 1014.3
20260901151041 84 289 3.0 8.0 0.00 0.00 0.00 75 1014.5
20260901151002 84 289 3.0 8.0 0.00 0.00 0.00 75 1014.5
20260901150541 84 278 3.0 8.0 0.00 0.00 0.00 74 1014.5
20260901150502 84 278 3.0 8.0 0.00 0.00 0.00 74 1014.5
20260901150041 84 278 3.0 7.0 0.00 0.00 0.00 74 1014.6
20260901150001 84 278 3.0 7.0 0.00 0.00 0.00 74 1014.6
20260901145541 84 268 3.0 9.0 0.00 0.00 0.00 75 1014.6
20260901145523 84 268 3.0 9.0 0.00 0.00 0.00 75 1014.6
20260901145041 84 251 3.0 9.0 0.00 0.00 0.00 75 1014.6
20260901145023 84 251 3.0 9.0 0.00 0.00 0.00 75 1014.6
20260901144541 84 244 2.0 6.0 0.00 0.00 0.00 76 1014.5
20260901144502 84 244 2.0 6.0 0.00 0.00 0.00 76 1014.5
20260901144041 83 261 2.0 5.0 0.00 0.00 0.00 76 1014.3
20260901144002 83 261 2.0 5.0 0.00 0.00 0.00 76 1014.3
20260901143541 83 262 2.0 6.0 0.00 0.00 0.00 76 1014.4
20260901143502 83 262 2.0 6.0 0.00 0.00 0.00 76 1014.4
20260901143040 83 254 3.0 7.0 0.00 0.00 0.00 76 1014.5
20260901143002 83 254 3.0 7.0 0.00 0.00 0.00 76 1014.5
20260901142540 83 275 4.0 9.0 0.00 0.00 0.00 76 1014.4
20260901142501 83 275 4.0 9.0 0.00 0.00 0.00 76 1014.4
20260901142040 83 288 5.0 9.0 0.00 0.00 0.00 76 1014.4
20260901142002 83 288 5.0 9.0 0.00 0.00 0.00 76 1014.4
20260901141540 83 284 4.0 8.0 0.00 0.00 0.00 76 1014.4
20260901141502 83 284 4.0 8.0 0.00 0.00 0.00 76 1014.4
20260901141040 83 265 4.0 8.0 0.00 0.00 0.00 75 1014.2
20260901141002 83 265 4.0 8.0 0.00 0.00 0.00 75 1014.2
20260901140540 83 252 3.0 7.0 0.00 0.00 0.00 76 1014.1
20260901140502 83 252 3.0 7.0 0.00 0.00 0.00 76 1014.1
20260901140040 83 265 4.0 8.0 0.00 0.00 0.00 76 1014.1
20260901140002 83 265 4.0 8.0 0.00 0.00 0.00 76 1014.1
20260901135540 82 269 4.0 8.0 0.00 0.00 0.00 77 1014.1
20260901135501 82 269 4.0 8.0 0.00 0.00 0.00 77 1014.1
20260901135040 82 260 3.0 8.0 0.00 0.00 0.00 77 1014.1
20260901135002 82 260 3.0 8.0 0.00 0.00 0.00 77 1014.1
20260901134540 82 262 4.0 9.0 0.00 0.00 0.00 78 1014.2
20260901134502 82 262 4.0 9.0 0.00 0.00 0.00 78 1014.2
20260901134040 82 276 4.0 9.0 0.00 0.00 0.00 78 1014.2
20260901134002 82 276 4.0 10.0 0.00 0.00 0.00 78 1014.2
20260901133540 81 278 4.0 10.0 0.00 0.00 0.00 78 1014.3
20260901133523 81 278 4.0 10.0 0.00 0.00 0.00 78 1014.3
20260901133040 81 277 3.0 10.0 0.00 0.00 0.00 78 1014.2
20260901133023 81 277 3.0 10.0 0.00 0.00 0.00 78 1014.2
20260901132539 81 286 2.0 6.0 0.00 0.00 0.00 79 1014.2
20260901132502 81 286 2.0 6.0 0.00 0.00 0.00 79 1014.2
20260901132039 81 277 2.0 4.0 0.00 0.00 0.00 79 1014.2
20260901132002 80 278 2.0 4.0 0.00 0.00 0.00 79 1014.2
20260901131539 80 266 2.0 7.0 0.00 0.00 0.00 80 1014.2
20260901131503 80 266 2.0 7.0 0.00 0.00 0.00 80 1014.2
20260901131039 80 273 2.0 7.0 0.00 0.00 0.00 80 1014.3
20260901131003 80 273 2.0 7.0 0.00 0.00 0.00 80 1014.3
20260901130539 80 264 2.0 7.0 0.00 0.00 0.00 80 1014.3
20260901130502 80 264 2.0 7.0 0.00 0.00 0.00 80 1014.3
20260901130039 80 269 2.0 8.0 0.00 0.00 0.00 81 1014.4
20260901130003 80 269 2.0 8.0 0.00 0.00 0.00 81 1014.4
20260901125539 80 272 3.0 9.0 0.00 0.00 0.00 81 1014.3
20260901125502 80 272 3.0 9.0 0.00 0.00 0.00 81 1014.3
20260901125039 79 262 3.0 9.0 0.00 0.00 0.00 82 1014.4
20260901125002 79 262 3.0 9.0 0.00 0.00 0.00 82 1014.4
20260901124539 79 262 3.0 8.0 0.00 0.00 0.00 83 1014.4
20260901124502 79 262 3.0 8.0 0.00 0.00 0.00 83 1014.4
20260901124039 78 262 2.0 8.0 0.00 0.00 0.00 84 1014.5
20260901124002 78 262 2.0 8.0 0.00 0.00 0.00 84 1014.5
20260901123539 77 262 3.0 7.0 0.00 0.00 0.00 85 1014.4
20260901123503 77 262 3.0 7.0 0.00 0.00 0.00 85 1014.4
20260901123039 77 262 3.0 7.0 0.00 0.00 0.00 86 1014.5
20260901123023 77 262 3.0 7.0 0.00 0.00 0.00 86 1014.5
20260901122539 76 262 4.0 8.0 0.00 0.00 0.00 87 1014.6
20260901122505 76 262 4.0 8.0 0.00 0.00 0.00 87 1014.6
20260901122039 76 265 4.0 8.0 0.00 0.00 0.00 88 1014.3
20260901122002 76 265 4.0 8.0 0.00 0.00 0.00 88 1014.3
20260901121539 76 270 3.0 7.0 0.00 0.00 0.00 88 1014.3
20260901121503 76 270 3.0 7.0 0.00 0.00 0.00 88 1014.3
20260901121038 75 266 2.0 8.0 0.00 0.00 0.00 88 1014.3
20260901121002 75 266 2.0 8.0 0.00 0.00 0.00 88 1014.3
20260901120538 75 267 2.0 8.0 0.00 0.00 0.00 89 1014.2
20260901120523 75 267 2.0 8.0 0.00 0.00 0.00 89 1014.3
20260901120038 75 277 2.0 8.0 0.00 0.00 0.00 89 1014.1
20260901120024 75 277 2.0 8.0 0.00 0.00 0.00 89 1014.1
20260901115538 75 272 2.0 6.0 0.00 0.00 0.00 89 1014.0
20260901115502 75 272 2.0 6.0 0.00 0.00 0.00 89 1014.0
20260901115038 74 269 1.0 4.0 0.00 0.00 0.00 89 1014.1
20260901115002 74 269 1.0 4.0 0.00 0.00 0.00 89 1014.1
20260901114538 74 269 0.0 4.0 0.00 0.00 0.00 89 1014.1
20260901114502 74 269 0.0 4.0 0.00 0.00 0.00 89 1014.1
20260901114038 74 269 1.0 3.0 0.00 0.00 0.00 89 1014.1
20260901114003 74 269 1.0 3.0 0.00 0.00 0.00 89 1014.1
20260901113538 74 269 1.0 4.0 0.00 0.00 0.00 89 1014.1
20260901113502 74 269 1.0 4.0 0.00 0.00 0.00 89 1014.1
20260901113038 74 269 2.0 4.0 0.00 0.00 0.00 89 1014.1
20260901113002 74 269 2.0 4.0 0.00 0.00 0.00 89 1014.1
20260901112538 74 269 2.0 7.0 0.00 0.00 0.00 89 1014.0
20260901112524 74 269 2.0 7.0 0.00 0.00 0.00 89 1014.0
20260901112037 74 270 2.0 7.0 0.00 0.00 0.00 89 1014.0
20260901112003 74 270 2.0 7.0 0.00 0.00 0.00 89 1014.0
20260901111537 74 273 2.0 6.0 0.00 0.00 0.00 89 1014.0
20260901111506 74 273 2.0 6.0 0.00 0.00 0.00 89 1014.0
20260901111037 74 276 1.0 3.0 0.00 0.00 0.00 89 1013.9
20260901111023 74 276 1.0 3.0 0.00 0.00 0.00 89 1013.9
20260901110537 74 275 1.0 3.0 0.00 0.00 0.00 89 1013.8
20260901110524 74 275 1.0 3.0 0.00 0.00 0.00 89 1013.8
20260901110037 74 275 1.0 4.0 0.00 0.00 0.00 89 1013.9
20260901110003 74 275 1.0 4.0 0.00 0.00 0.00 89 1013.8
20260901105537 74 262 2.0 6.0 0.00 0.00 0.00 89 1013.9
20260901105505 74 262 2.0 6.0 0.00 0.00 0.00 89 1013.9
20260901105037 75 257 2.0 6.0 0.00 0.00 0.00 89 1013.8
20260901105002 75 257 2.0 6.0 0.00 0.00 0.00 89 1013.8
20260901104537 75 259 2.0 6.0 0.00 0.00 0.00 89 1013.9
20260901104502 75 259 2.0 6.0 0.00 0.00 0.00 89 1013.9
20260901104037 75 260 2.0 6.0 0.00 0.00 0.00 88 1013.7
20260901104002 75 260 2.0 6.0 0.00 0.00 0.00 88 1013.7
20260901103537 75 259 0.0 3.0 0.00 0.00 0.00 88 1013.6
20260901103502 75 259 0.0 3.0 0.00 0.00 0.00 88 1013.6
20260901103037 75 259 0.0 3.0 0.00 0.00 0.00 88 1013.5
20260901103002 75 259 0.0 3.0 0.00 0.00 0.00 88 1013.5
20260901102537 75 259 0.0 2.0 0.00 0.00 0.00 88 1013.6
20260901102503 75 259 0.0 2.0 0.00 0.00 0.00 88 1013.6
20260901102037 75 259 0.0 4.0 0.00 0.00 0.00 88 1013.6
20260901102003 75 259 0.0 4.0 0.00 0.00 0.00 88 1013.6
20260901101537 75 257 1.0 6.0 0.00 0.00 0.00 88 1013.6
20260901101502 75 257 1.0 6.0 0.00 0.00 0.00 88 1013.6
20260901101037 75 250 1.0 6.0 0.00 0.00 0.00 88 1013.6
20260901101023 75 250 1.0 6.0 0.00 0.00 0.00 88 1013.6
20260901100537 75 223 0.0 2.0 0.00 0.00 0.00 88 1013.5
20260901100524 75 223 0.0 2.0 0.00 0.00 0.00 88 1013.5
20260901100037 75 244 1.0 3.0 0.00 0.00 0.00 88 1013.5
20260901100003 75 244 1.0 3.0 0.00 0.00 0.00 88 1013.5
20260901095536 75 252 1.0 4.0 0.00 0.00 0.00 87 1013.6
20260901095502 75 252 1.0 4.0 0.00 0.00 0.00 87 1013.6
20260901095036 75 253 2.0 6.0 0.00 0.00 0.00 87 1013.6
20260901095002 75 254 2.0 6.0 0.00 0.00 0.00 87 1013.6
20260901094536 76 262 2.0 6.0 0.00 0.00 0.00 88 1013.5
20260901094503 76 262 2.0 6.0 0.00 0.00 0.00 88 1013.5
20260901094036 76 264 2.0 6.0 0.00 0.00 0.00 87 1013.6
20260901094003 76 264 2.0 6.0 0.00 0.00 0.00 87 1013.6
20260901093536 76 264 2.0 6.0 0.00 0.00 0.00 87 1013.6
20260901093503 76 264 2.0 6.0 0.00 0.00 0.00 87 1013.6
20260901093036 76 264 2.0 6.0 0.00 0.00 0.00 87 1013.5
20260901093002 76 264 2.0 6.0 0.00 0.00 0.00 87 1013.5
20260901092536 76 261 3.0 6.0 0.00 0.00 0.00 87 1013.5
20260901092506 76 261 3.0 6.0 0.00 0.00 0.00 87 1013.5
20260901092036 76 259 3.0 7.0 0.00 0.00 0.00 87 1013.4
20260901092003 76 259 3.0 7.0 0.00 0.00 0.00 87 1013.4
20260901091536 76 255 2.0 9.0 0.00 0.00 0.00 87 1013.4
20260901091524 76 255 2.0 9.0 0.00 0.00 0.00 87 1013.4
20260901091036 76 244 2.0 9.0 0.00 0.00 0.00 87 1013.4
20260901091003 76 244 2.0 9.0 0.00 0.00 0.00 87 1013.4
20260901090536 76 247 2.0 7.0 0.00 0.00 0.00 87 1013.3
20260901090524 76 247 2.0 7.0 0.00 0.00 0.00 87 1013.3
20260901090036 76 257 2.0 8.0 0.00 0.00 0.00 87 1013.4
20260901090002 76 257 2.0 8.0 0.00 0.00 0.00 87 1013.4
20260901085536 76 254 2.0 8.0 0.00 0.00 0.00 87 1013.4
20260901085524 76 254 2.0 8.0 0.00 0.00 0.00 87 1013.4
20260901085036 76 249 2.0 7.0 0.00 0.00 0.00 87 1013.3
20260901085003 76 250 2.0 7.0 0.00 0.00 0.00 87 1013.3
20260901084536 76 266 2.0 7.0 0.00 0.00 0.00 87 1013.3
20260901084503 76 266 2.0 7.0 0.00 0.00 0.00 87 1013.3
20260901084035 76 283 2.0 6.0 0.00 0.00 0.00 87 1013.4
20260901084023 76 283 2.0 6.0 0.00 0.00 0.00 87 1013.4
20260901083535 76 284 2.0 6.0 0.00 0.00 0.00 87 1013.3
20260901083524 76 284 2.0 6.0 0.00 0.00 0.00 87 1013.3
20260901083035 76 275 2.0 7.0 0.00 0.00 0.00 87 1013.2
20260901083002 76 275 2.0 7.0 0.00 0.00 0.00 87 1013.2
20260901082535 76 264 2.0 7.0 0.00 0.00 0.00 87 1013.2
20260901082502 76 264 2.0 7.0 0.00 0.00 0.00 87 1013.2
20260901082035 76 249 2.0 6.0 0.00 0.00 0.00 87 1013.1
20260901082003 76 249 2.0 6.0 0.00 0.00 0.00 87 1013.1
20260901081535 76 227 2.0 6.0 0.00 0.00 0.00 87 1013.2
20260901081524 76 228 2.0 6.0 0.00 0.00 0.00 87 1013.2
20260901081035 76 249 1.0 5.0 0.00 0.00 0.00 87 1013.2
20260901081002 76 249 1.0 5.0 0.00 0.00 0.00 87 1013.2
20260901080535 76 233 1.0 5.0 0.00 0.00 0.00 86 1013.1
20260901080502 76 233 1.0 5.0 0.00 0.00 0.00 86 1013.1
20260901080035 76 253 2.0 7.0 0.00 0.00 0.00 86 1013.2
20260901080003 76 253 2.0 7.0 0.00 0.00 0.00 86 1013.2
20260901075535 76 257 2.0 7.0 0.00 0.00 0.00 86 1013.2
20260901075503 76 258 2.0 7.0 0.00 0.00 0.00 86 1013.2
20260901075035 76 249 2.0 9.0 0.00 0.00 0.00 86 1013.2
20260901075003 76 249 2.0 9.0 0.00 0.00 0.00 86 1013.2
20260901074535 76 259 2.0 9.0 0.00 0.00 0.00 86 1013.2
20260901074523 76 259 2.0 9.0 0.00 0.00 0.00 86 1013.2
20260901074035 76 265 3.0 10.0 0.00 0.00 0.00 86 1013.2
20260901074024 76 265 3.0 10.0 0.00 0.00 0.00 86 1013.2
20260901073534 76 260 3.0 10.0 0.00 0.00 0.00 86 1013.3
20260901073524 76 260 3.0 10.0 0.00 0.00 0.00 86 1013.3
20260901073034 76 256 3.0 11.0 0.00 0.00 0.00 86 1013.3
20260901073002 76 256 3.0 11.0 0.00 0.00 0.00 86 1013.3
20260901072524 76 261 4.0 11.0 0.00 0.00 0.00 86 1013.4
20260901072504 76 263 3.0 11.0 0.00 0.00 0.00 86 1013.4
20260901072005 76 264 3.0 10.0 0.00 0.00 0.00 86 1013.3
20260901072003 76 265 3.0 10.0 0.00 0.00 0.00 86 1013.4
20260901071504 76 258 3.0 9.0 0.00 0.00 0.00 86 1013.3
20260901071004 77 255 2.0 9.0 0.00 0.00 0.00 86 1013.3
20260901070504 77 269 2.0 7.0 0.00 0.00 0.00 86 1013.3
20260901070004 77 272 2.0 12.0 0.00 0.00 0.00 86 1013.2
20260901070002 77 271 3.0 12.0 0.00 0.00 0.00 86 1013.3
20260901065506 77 266 2.0 12.0 0.00 0.00 0.00 86 1013.2
20260901065504 77 266 2.0 12.0 0.00 0.00 0.00 86 1013.2
20260901065004 77 264 2.0 7.0 0.00 0.00 0.00 85 1013.3
20260901064504 77 265 2.0 7.0 0.00 0.00 0.00 85 1013.3
20260901064004 77 256 2.0 9.0 0.00 0.00 0.00 85 1013.2
20260901063506 77 251 2.0 9.0 0.00 0.00 0.00 85 1013.3
20260901063504 77 248 2.0 9.0 0.00 0.00 0.00 85 1013.3
20260901063004 77 237 1.0 6.0 0.00 0.00 0.00 85 1013.4
20260901062506 77 223 1.0 4.0 0.00 0.00 0.00 85 1013.4
20260901062503 77 222 1.0 4.0 0.00 0.00 0.00 85 1013.4
20260901062006 77 227 0.0 4.0 0.00 0.00 0.00 85 1013.5
20260901062003 77 237 0.0 5.0 0.00 0.00 0.00 85 1013.5
20260901061506 77 245 0.0 5.0 0.00 0.00 0.00 85 1013.6
20260901061503 77 245 0.0 5.0 0.00 0.00 0.00 85 1013.5
20260901061003 77 244 0.0 5.0 0.00 0.00 0.00 85 1013.5
20260901060506 77 227 0.0 4.0 0.00 0.00 0.00 85 1013.7
20260901060503 77 227 0.0 4.0 0.00 0.00 0.00 85 1013.6
20260901060003 77 227 1.0 3.0 0.00 0.00 0.00 85 1013.7
20260901055503 77 233 1.0 4.0 0.00 0.00 0.00 85 1013.6
20260901055003 77 254 1.0 4.0 0.00 0.00 0.00 85 1013.7
20260901054506 77 252 1.0 8.0 0.00 0.00 0.00 85 1013.8
20260901054503 77 250 1.0 8.0 0.00 0.00 0.00 85 1013.7
20260901054003 76 248 1.0 8.0 0.00 0.00 0.00 85 1013.7
20260901053503 76 249 1.0 4.0 0.00 0.00 0.00 85 1013.8
20260901053003 76 240 2.0 5.0 0.00 0.00 0.00 85 1013.9
20260901052503 76 216 1.0 5.0 0.00 0.00 0.00 85 1013.8
20260901052006 76 210 1.0 5.0 0.00 0.00 0.00 85 1013.9
20260901052003 76 210 1.0 5.0 0.00 0.00 0.00 85 1013.9
20260901051503 76 210 1.0 5.0 0.00 0.00 0.00 85 1013.7
20260901051003 75 200 1.0 3.0 0.00 0.00 0.00 85 1013.7
20260901050503 75 204 1.0 5.0 0.00 0.00 0.00 85 1013.7
20260901050006 75 235 1.0 5.0 0.00 0.00 0.00 86 1013.6
20260901050003 75 252 1.0 5.0 0.00 0.00 0.00 86 1013.6
20260901045503 74 283 1.0 4.0 0.00 0.00 0.00 86 1013.7
20260901045006 74 288 1.0 5.0 0.00 0.00 0.00 86 1013.8
20260901045002 74 283 1.0 5.0 0.00 0.00 0.00 86 1013.6
20260901044505 74 257 1.0 5.0 0.00 0.00 0.00 86 1013.7
20260901044502 74 252 1.0 5.0 0.00 0.00 0.00 86 1013.7
20260901044003 74 216 1.0 3.0 0.00 0.00 0.00 86 1013.7
20260901043503 74 144 0.0 1.0 0.00 0.00 0.00 86 1013.6
20260901043003 74 144 0.0 1.0 0.00 0.00 0.00 86 1013.6
20260901042503 74 144 0.0 2.0 0.00 0.00 0.00 86 1013.6
20260901042003 74 144 0.0 2.0 0.00 0.00 0.00 86 1013.6
20260901041503 73 0 0.0 0.0 0.00 0.00 0.00 86 1013.6
20260901041003 73 0 0.0 0.0 0.00 0.00 0.00 86 1013.7
20260901040503 73 0 0.0 0.0 0.00 0.00 0.00 86 1013.7
20260901040003 73 144 0.0 1.0 0.00 0.00 0.00 86 1013.9
20260901035503 73 144 0.0 1.0 0.00 0.00 0.00 86 1013.9
20260901035003 73 0 0.0 0.0 0.00 0.00 0.00 86 1013.9
20260901034503 73 0 0.0 0.0 0.00 0.00 0.00 86 1013.9
20260901034501 73 0 0.0 0.0 0.00 0.00 0.00 86 1014.0
20260901034004 73 0 0.0 0.0 0.00 0.00 0.00 86 1013.9
20260901034002 73 0 0.0 0.0 0.00 0.00 0.00 86 1013.9
20260901033503 73 0 0.0 0.0 0.00 0.00 0.00 86 1013.9
20260901033501 73 0 0.0 0.0 0.00 0.00 0.00 86 1014.0
20260901033003 73 0 0.0 0.0 0.00 0.00 0.00 86 1013.8
20260901033001 73 0 0.0 0.0 0.00 0.00 0.00 86 1013.9
20260901032503 73 0 0.0 0.0 0.00 0.00 0.00 86 1013.9
20260901032501 73 0 0.0 0.0 0.00 0.00 0.00 86 1014.0
20260901032003 73 0 0.0 0.0 0.00 0.00 0.00 86 1014.0
20260901032001 73 0 0.0 0.0 0.00 0.00 0.00 85 1014.1
20260901031524 74 0 0.0 0.0 0.00 0.00 0.00 85 1014.0
20260901031501 74 0 0.0 0.0 0.00 0.00 0.00 85 1014.1
20260901031006 74 0 0.0 0.0 0.00 0.00 0.00 85 1014.0
20260901031001 74 0 0.0 0.0 0.00 0.00 0.00 85 1014.0
20260901030503 74 0 0.0 0.0 0.00 0.00 0.00 85 1014.0
20260901030501 74 0 0.0 0.0 0.00 0.00 0.00 85 1013.9
20260901030003 74 0 0.0 0.0 0.00 0.00 0.00 85 1013.9
20260901030001 74 0 0.0 0.0 0.00 0.00 0.00 85 1013.9
20260901025503 74 0 0.0 0.0 0.00 0.00 0.00 85 1014.0
20260901025501 74 0 0.0 0.0 0.00 0.00 0.00 85 1014.0
20260901025024 74 144 0.0 1.0 0.00 0.00 0.00 85 1014.0
20260901025001 74 144 0.0 1.0 0.00 0.00 0.00 85 1014.1
20260901024506 74 144 0.0 1.0 0.00 0.00 0.00 85 1014.1
20260901024501 74 144 0.0 1.0 0.00 0.00 0.00 85 1014.1
20260901024003 74 0 0.0 0.0 0.00 0.00 0.00 85 1014.1
20260901024001 74 0 0.0 0.0 0.00 0.00 0.00 85 1014.1
20260901023503 74 144 0.0 1.0 0.00 0.00 0.00 85 1014.1
20260901023501 74 144 0.0 1.0 0.00 0.00 0.00 85 1014.1
20260901023027 74 144 0.0 1.0 0.00 0.00 0.00 85 1014.2
20260901023001 74 144 0.0 1.0 0.00 0.00 0.00 85 1014.2
20260901022503 74 0 0.0 0.0 0.00 0.00 0.00 84 1014.2
20260901022501 74 0 0.0 0.0 0.00 0.00 0.00 84 1014.2
20260901022004 74 144 0.0 1.0 0.00 0.00 0.00 84 1014.2
20260901022001 74 144 0.0 1.0 0.00 0.00 0.00 84 1014.2
20260901021503 75 144 0.0 1.0 0.00 0.00 0.00 84 1014.2
20260901021501 75 144 0.0 1.0 0.00 0.00 0.00 84 1014.2
20260901021003 75 144 0.0 1.0 0.00 0.00 0.00 84 1014.2
20260901021000 75 144 0.0 1.0 0.00 0.00 0.00 84 1014.1
20260901020503 75 144 0.0 1.0 0.00 0.00 0.00 84 1014.0
20260901020500 75 144 0.0 1.0 0.00 0.00 0.00 84 1014.0
20260901020004 75 144 0.0 3.0 0.00 0.00 0.00 84 1014.0
20260901020000 75 144 0.0 3.0 0.00 0.00 0.00 84 1014.0
20260901015506 75 143 0.0 3.0 0.00 0.00 0.00 84 1014.1
20260901015500 75 143 0.0 3.0 0.00 0.00 0.00 84 1014.2
20260901015004 75 142 1.0 5.0 0.00 0.00 0.00 84 1014.2
20260901015000 75 143 1.0 5.0 0.00 0.00 0.00 84 1014.2
20260901014503 75 146 1.0 5.0 0.00 0.00 0.00 84 1014.2
20260901014500 75 146 1.0 5.0 0.00 0.00 0.00 84 1014.2
20260901014004 75 149 1.0 5.0 0.00 0.00 0.00 84 1014.2
20260901014000 75 151 1.0 3.0 0.00 0.00 0.00 84 1014.3
20260901013503 74 150 0.0 3.0 0.00 0.00 0.00 84 1014.2
20260901013500 75 150 0.0 3.0 0.00 0.00 0.00 84 1014.2
20260901013003 74 150 1.0 3.0 0.00 0.00 0.00 84 1014.3
20260901013000 74 150 1.0 3.0 0.00 0.00 0.00 84 1014.3
20260901012525 75 150 1.0 3.0 0.00 0.00 0.00 84 1014.3
20260901012500 74 150 1.0 3.0 0.00 0.00 0.00 84 1014.2
20260901012003 74 150 1.0 2.0 0.00 0.00 0.00 85 1014.1
20260901012000 75 150 1.0 3.0 0.00 0.00 0.00 85 1014.1
20260901011503 75 150 0.0 3.0 0.00 0.00 0.00 85 1014.1
20260901011500 75 150 0.0 5.0 0.00 0.00 0.00 86 1014.1
20260901011004 75 155 0.0 5.0 0.00 0.00 0.00 86 1014.0
20260901011000 75 158 0.0 5.0 0.00 0.00 0.00 86 1014.0
20260901010527 75 164 0.0 5.0 0.00 0.00 0.00 86 1013.9
20260901010500 75 167 1.0 4.0 0.00 0.00 0.00 86 1013.9
20260901010003 75 165 1.0 5.0 0.00 0.00 0.00 87 1013.7
20260901010000 75 164 1.0 5.0 0.00 0.00 0.00 87 1013.6
20260901005503 75 154 1.0 5.0 0.00 0.00 0.00 87 1013.5
20260901005459 75 149 1.0 5.0 0.00 0.00 0.00 87 1013.5
20260901005004 75 134 1.0 3.0 0.00 0.00 0.00 87 1013.4
20260901004959 75 133 1.0 3.0 0.00 0.00 0.00 87 1013.4
20260901004501 75 136 1.0 4.0 0.00 0.00 0.00 87 1013.4
20260901004429 75 138 1.0 4.0 0.00 0.00 0.00 87 1013.4
20260901004004 75 152 1.0 4.0 0.00 0.00 0.00 87 1013.4
20260901003929 75 158 1.0 4.0 0.00 0.00 0.00 87 1013.5
20260901003502 75 162 1.0 4.0 0.00 0.00 0.00 87 1013.5
20260901003429 75 161 1.0 4.0 0.00 0.00 0.00 87 1013.5
20260901003004 75 158 1.0 4.0 0.00 0.00 0.00 86 1013.6
20260901002929 75 157 1.0 4.0 0.00 0.00 0.00 86 1013.5
20260901002501 76 152 1.0 4.0 0.00 0.00 0.00 87 1013.5
20260901002429 76 151 1.0 3.0 0.00 0.00 0.00 87 1013.6
20260901002002 76 153 1.0 3.0 0.00 0.00 0.00 86 1013.6
20260901001929 76 153 1.0 3.0 0.00 0.00 0.00 86 1013.6
20260901001501 76 153 1.0 3.0 0.00 0.00 0.00 86 1013.6
20260901001429 76 153 1.0 2.0 0.00 0.00 0.00 86 1013.6
20260901001022 77 153 1.0 5.0 0.00 0.00 0.00 85 1013.6
20260901000929 77 153 1.0 5.0 0.00 0.00 0.00 85 1013.6
20260901000504 77 153 1.0 5.0 0.00 0.00 0.00 84 1013.7
20260901000429 77 153 1.0 5.0 0.00 0.00 0.00 84 1013.7
20260901000002 77 154 1.0 5.0 0.00 0.00 0.00 83 1013.6
20260831235929 77 154 1.0 5.0 0.00 0.00 0.00 83 1013.6
20260831235501 78 155 1.0 5.0 0.00 0.00 0.00 83 1013.6
20260831235429 78 155 1.0 5.0 0.00 0.00 0.00 82 1013.6
20260831235001 78 155 1.0 3.0 0.00 0.00 0.00 81 1013.5
20260831234929 78 155 1.0 3.0 0.00 0.00 0.00 81 1013.5
20260831234502 78 155 1.0 3.0 0.00 0.00 0.00 80 1013.7
20260831234429 78 155 1.0 3.0 0.00 0.00 0.00 80 1013.7
20260831234001 78 155 1.0 3.0 0.00 0.00 0.00 80 1013.7
20260831233929 79 155 1.0 3.0 0.00 0.00 0.00 80 1013.7
20260831233501 79 155 1.0 3.0 0.00 0.00 0.00 79 1013.9
20260831233429 79 155 1.0 3.0 0.00 0.00 0.00 79 1014.0
20260831233001 79 155 1.0 3.0 0.00 0.00 0.00 79 1013.9
20260831232928 79 155 1.0 3.0 0.00 0.00 0.00 79 1013.9
20260831232525 79 155 1.0 3.0 0.00 0.00 0.00 78 1013.9
20260831232428 79 155 1.0 5.0 0.00 0.00 0.00 78 1013.9
20260831232002 79 155 1.0 5.0 0.00 0.00 0.00 78 1014.0
20260831231928 79 155 1.0 5.0 0.00 0.00 0.00 78 1014.1
20260831231502 79 163 1.0 5.0 0.00 0.00 0.00 78 1014.0
20260831231428 79 166 1.0 4.0 0.00 0.00 0.00 78 1014.1
20260831231025 79 180 2.0 5.0 0.00 0.00 0.00 78 1014.2
20260831230928 79 184 2.0 5.0 0.00 0.00 0.00 78 1014.2
20260831230501 79 187 2.0 5.0 0.00 0.00 0.00 78 1014.2
20260831230428 79 186 2.0 5.0 0.00 0.00 0.00 77 1014.2
20260831230001 79 180 2.0 4.0 0.00 0.00 0.00 77 1014.4
20260831225928 79 179 2.0 4.0 0.00 0.00 0.00 77 1014.4
20260831225505 79 175 2.0 4.0 0.00 0.00 0.00 77 1014.3
20260831225428 79 176 2.0 5.0 0.00 0.00 0.00 77 1014.3
20260831225001 79 201 2.0 5.0 0.00 0.00 0.00 77 1014.3
20260831224928 79 208 2.0 5.0 0.00 0.00 0.00 77 1014.3
20260831224501 79 218 2.0 5.0 0.00 0.00 0.00 77 1014.4
20260831224428 79 222 2.0 5.0 0.00 0.00 0.00 77 1014.4
20260831224023 79 214 2.0 6.0 0.00 0.00 0.00 77 1014.7
20260831223928 79 212 2.0 6.0 0.00 0.00 0.00 77 1014.6
20260831223502 78 239 2.0 7.0 0.00 0.00 0.00 78 1014.4
20260831223428 78 233 3.0 7.0 0.00 0.00 0.00 78 1014.4
20260831223004 78 248 2.0 7.0 0.00 0.00 0.00 79 1014.8
20260831222927 78 251 3.0 7.0 0.00 0.00 0.00 79 1014.8
20260831222501 78 244 3.0 8.0 0.00 0.00 0.00 80 1015.0
20260831222428 78 243 2.0 8.0 0.00 0.00 0.00 80 1014.9
20260831222002 78 226 3.0 8.0 0.00 0.00 0.00 81 1014.7
20260831221927 78 213 2.0 8.0 0.00 0.00 0.00 81 1014.4
20260831221501 77 186 2.0 7.0 0.00 0.00 0.00 82 1014.2
20260831221427 77 178 2.0 5.0 0.00 0.00 0.00 82 1014.1
20260831221001 77 166 1.0 5.0 0.00 0.00 0.00 82 1014.2
20260831220927 77 167 1.0 5.0 0.00 0.00 0.00 82 1014.1
20260831220502 77 172 2.0 5.0 0.00 0.00 0.00 82 1014.0
20260831220427 77 174 2.0 5.0 0.00 0.00 0.00 82 1014.0
20260831220001 77 173 2.0 5.0 0.00 0.00 0.00 82 1014.1
20260831215927 77 172 2.0 5.0 0.00 0.00 0.00 82 1014.3
20260831215501 77 172 2.0 6.0 0.00 0.00 0.00 83 1014.4
20260831215427 76 172 2.0 11.0 0.00 0.00 0.00 83 1014.4
20260831215002 76 169 3.0 11.0 0.00 0.00 0.00 83 1014.5
20260831214927 76 168 3.0 11.0 0.00 0.00 0.00 82 1014.5
20260831214525 76 166 3.0 11.0 0.00 0.00 0.00 82 1014.5
20260831214427 76 164 3.0 6.0 0.00 0.00 0.00 82 1014.5
20260831214001 76 164 2.0 6.0 0.00 0.00 0.00 83 1014.5
20260831213927 76 167 2.0 6.0 0.00 0.00 0.00 83 1014.6
20260831213526 76 167 2.0 6.0 0.00 0.00 0.00 84 1014.6
20260831213427 76 167 2.0 6.0 0.00 0.00 0.00 84 1014.6
20260831213002 76 160 2.0 6.0 0.00 0.00 0.00 84 1014.9
20260831212927 76 152 2.0 6.0 0.00 0.00 0.00 84 1014.9
20260831212522 76 142 2.0 6.0 0.00 0.00 0.00 84 1014.9
20260831212427 76 141 2.0 6.0 0.00 0.00 0.00 84 1014.9
20260831212001 76 139 2.0 5.0 0.00 0.00 0.00 84 1015.0
20260831211927 77 143 2.0 5.0 0.00 0.00 0.00 84 1015.0
20260831211502 77 147 2.0 5.0 0.00 0.00 0.00 83 1015.0
20260831211427 77 146 2.0 5.0 0.00 0.00 0.00 83 1015.0
20260831211002 77 146 2.0 5.0 0.00 0.00 0.00 83 1015.1
20260831210926 77 147 2.0 5.0 0.00 0.00 0.00 83 1015.1
20260831210502 77 149 1.0 4.0 0.00 0.00 0.00 83 1015.2
20260831210426 77 151 1.0 5.0 0.00 0.00 0.00 83 1015.2
20260831210001 77 150 1.0 5.0 0.00 0.00 0.00 83 1015.3
20260831205926 77 148 1.0 5.0 0.00 0.00 0.00 83 1015.3
20260831205523 77 146 1.0 5.0 0.00 0.00 0.00 84 1015.4
20260831205426 77 144 1.0 4.0 0.00 0.00 0.00 84 1015.4